Weather History for Key West, FL

Change the Weather History Date:

Sunday, January 13, 2013

  Actual Average Record
Temperature  
Mean Temperature 77 °F 69 °F  
Max Temperature 80 °F 74 °F 86 °F (1877)
Min Temperature 74 °F 64 °F 41 °F (1981)
Degree Days  
Heating Degree Days 0 1  
Month to date heating degree days 0 13  
Since 1 July heating degree days 4 31  
Cooling Degree Days 12 5  
Month to date cooling degree days 152 67  
Year to date cooling degree days 152 67  
Growing Degree Days 26 (Base 50)    
Moisture  
Dew Point 66 °F    
Average Humidity 72    
Maximum Humidity 82    
Minimum Humidity 62    
Precipitation  
Precipitation T in 0.07 in 1.47 in (1993)
Month to date precipitation T 0.83  
Year to date precipitation T 0.83  
Snow  
Snow 0.00 in - - ()
Month to date snowfall 0.0  
Since 1 July snowfall 0.0  
Snow Depth 0.00 in    
Sea Level Pressure  
Sea Level Pressure 30.07 in    
Wind  
Wind Speed 15 mph (ESE)    
Max Wind Speed 22 mph    
Max Gust Speed 28 mph    
Visibility 10 miles    
Events Rain    
T = Trace of Precipitation, MM = Missing Value Source: NWS Daily Summary

Daily Weather History Graph

Daily Weather History Graph

Search for Another Location

Airport:

Trip Planner

Search our weather history database for the weather conditions in past years. The results will help you decide how hot, cold, wet, or windy it might be!

Date:

Astronomy

Jan. 13, 2013 Rise Set
Actual Time 7:13 AM EST 5:58 PM EST
Civil Twilight 6:48 AM EST 6:23 PM EST
Nautical Twilight 6:20 AM EST 6:51 PM EST
Astronomical Twilight 5:52 AM EST 7:18 PM EST
Moon 8:27 AM EST (1/13) 8:15 PM EST (1/13)
Length of Visible Light 11h 34m
Length of Day
10h 45m
Waxing Crescent, 5% of the Moon is Illuminated
Jan 13
Waxing Crescent
Jan 18
First Quarter
Jan 26
Full
Feb 3
Last Quarter
Feb 10
New

Hourly Weather History & Observations

Time (EST) Temp. Heat Index Dew Point Humidity Pressure Visibility Wind Dir Wind Speed Gust Speed Precip Events Conditions
12:53 AM 75.0 °F - 69.1 °F 82% 30.06 in 10.0 mi East 10.4 mph - N/A   Partly Cloudy
1:53 AM 75.0 °F - 69.1 °F 82% 30.06 in 10.0 mi East 6.9 mph - N/A   Scattered Clouds
2:22 AM 75.2 °F - 69.8 °F 83% 30.06 in 10.0 mi ESE 16.1 mph 19.6 mph 0.00 in Rain Light Rain
2:36 AM 75.2 °F - 69.8 °F 83% 30.06 in 10.0 mi ESE 13.8 mph - 0.00 in   Scattered Clouds
2:53 AM 75.0 °F - 69.1 °F 82% 30.06 in 10.0 mi East 12.7 mph - 0.00 in   Clear
3:53 AM 75.0 °F - 69.1 °F 82% 30.04 in 10.0 mi ESE 15.0 mph - N/A   Clear
4:53 AM 75.0 °F - 69.1 °F 82% 30.04 in 10.0 mi ESE 15.0 mph - N/A   Mostly Cloudy
5:53 AM 75.0 °F - 69.1 °F 82% 30.05 in 10.0 mi ESE 16.1 mph - 0.00 in   Mostly Cloudy
6:01 AM 75.2 °F - 69.8 °F 83% 30.05 in 10.0 mi ESE 12.7 mph - N/A   Mostly Cloudy
6:12 AM 75.2 °F - 68.0 °F 78% 30.05 in 10.0 mi ESE 15.0 mph - N/A   Scattered Clouds
6:53 AM 75.0 °F - 66.9 °F 76% 30.05 in 10.0 mi ESE 18.4 mph - N/A   Clear
7:53 AM 75.9 °F - 66.9 °F 74% 30.04 in 10.0 mi ESE 18.4 mph - N/A   Scattered Clouds
8:53 AM 77.0 °F - 66.9 °F 71% 30.06 in 10.0 mi ESE 17.3 mph - N/A   Clear
9:53 AM 77.0 °F - 66.9 °F 71% 30.07 in 10.0 mi ESE 18.4 mph 27.6 mph N/A   Mostly Cloudy
10:53 AM 79.0 °F - 66.0 °F 64% 30.09 in 10.0 mi ESE 19.6 mph - N/A   Scattered Clouds
11:53 AM 80.1 °F 82.3 °F 66.9 °F 64% 30.09 in 10.0 mi ESE 12.7 mph 20.7 mph N/A   Mostly Cloudy
12:53 PM 79.0 °F - 66.0 °F 64% 30.10 in 10.0 mi East 11.5 mph - N/A   Scattered Clouds
1:53 PM 80.1 °F 82.3 °F 66.9 °F 64% 30.08 in 10.0 mi ESE 11.5 mph - N/A   Clear
2:53 PM 79.0 °F - 64.9 °F 62% 30.07 in 10.0 mi ESE 15.0 mph - N/A   Partly Cloudy
3:53 PM 79.0 °F - 64.0 °F 60% 30.08 in 10.0 mi ESE 15.0 mph - N/A   Clear
4:53 PM 77.0 °F - 64.9 °F 66% 30.09 in 10.0 mi ESE 15.0 mph - N/A   Clear
5:53 PM 75.9 °F - 64.9 °F 69% 30.10 in 10.0 mi ESE 11.5 mph - N/A   Clear
6:53 PM 75.9 °F - 64.9 °F 69% 30.10 in 10.0 mi ESE 15.0 mph - N/A   Clear
7:53 PM 75.0 °F - 63.0 °F 66% 30.10 in 10.0 mi East 13.8 mph - N/A   Clear
8:53 PM 75.0 °F - 62.1 °F 64% 30.09 in 10.0 mi East 17.3 mph - N/A   Clear
9:53 PM 75.0 °F - 62.1 °F 64% 30.08 in 10.0 mi East 17.3 mph - N/A   Clear
10:53 PM 75.0 °F - 64.0 °F 69% 30.09 in 10.0 mi ESE 17.3 mph 23.0 mph N/A   Scattered Clouds
11:53 PM 75.0 °F - 60.1 °F 60% 30.10 in 10.0 mi ESE 16.1 mph - N/A   Partly Cloudy